Content
SEND FEEDBACK

Daily
Averages
Monthly
Summary
Austria

INNSBRUCK, AUSTRIA


Home > Europe > Austria
Elevation: 1994 feet     Latitude: 47 15N     Longitude: 011 20E

WEATHER
 
SELECT A DAY
Number of Records: 317,293;   Date Range: 7/1/96 - 10/21/14
 
SHARE

PRINT THIS DATA

[ ← Previous Day ]
WEATHER ALMANAC - NOVEMBER 1, 2013
[ Next Day → ]
[ °C ]   °F
Weather ElementAverageHighLow
Temperature47.8 °F55.4 °F (12:20 pm)41 °F (1:50 am)
Dewpoint44.5 °F48.2 °F (3:50 pm)41 °F (12:50 am)
Humidity88.3 %100 % (1:50 am)64 % (1:00 pm)
Barometer30.14 in30.28 in (1:00 am)30.01 in (11:20 pm)
Wind Speed3.1 mph8.1 mph (11:20 pm)
Weather ElementAverage
Visibility6.8 mi
Wind DirectionESE (128 °)

Weather ElementTotal
Precipitation---
Heating Degree Days16.8 (Base 65)
Averaged from 54 records on November 1, 2013
WEATHER CONDITIONS BREAKOUT
WIND DIRECTION BREAKOUT
WEATHER BY HOUR - NOVEMBER 1, 2013
[ °C ]   °F
Local TimeTemperatureDewpointHumidityBarometerVisibilityWind DirectionWind SpeedGust SpeedPrecipitationEventsConditions
12:50 AM42.8 °F41.0 °F93 %30.24 in5.0 miSouth (190°)2.3 mphScattered Clouds
1:00 AM42.0 °F42.0 °F98 %30.28 in5.0 miSouth (190°)2.2 mph
1:20 AM42.8 °F41.0 °F93 %30.24 inVariable2.3 mphScattered Clouds
1:50 AM41.0 °F41.0 °F100 %30.24 in4.3 miVariable2.3 mphScattered Clouds
2:20 AM41.0 °F41.0 °F100 %30.24 in6.2 miVariable1.2 mphMostly Cloudy
2:50 AM41.0 °F41.0 °F100 %30.24 in3.1 miVariable2.3 mphMostly Cloudy
3:20 AM41.0 °F41.0 °F100 %30.24 in6.2 miVariable1.2 mphMostly Cloudy
3:50 AM42.8 °F41.0 °F93 %30.21 in6.2 miVariable1.2 mphMostly Cloudy
4:20 AM42.8 °F42.8 °F100 %30.21 in6.2 miVariable1.2 mphMostly Cloudy
4:50 AM44.6 °F42.8 °F93 %30.21 in6.2 miWest (260°)2.3 mphMostly Cloudy
5:20 AM44.6 °F42.8 °F93 %30.21 in3.7 miWSW (250°)3.5 mphMostly Cloudy
5:50 AM44.6 °F42.8 °F93 %30.21 in1.9 miSW (230°)3.5 mphMostly Cloudy
6:20 AM42.8 °F42.8 °F100 %30.21 in1.2 miSW (230°)3.5 mphMostly Cloudy
6:50 AM42.8 °F42.8 °F100 %30.21 in1.2 miVariable1.2 mphMostly Cloudy
7:00 AM43.0 °F43.0 °F100 %30.27 in1.0 mi°2.2 mphMist
7:20 AM44.6 °F44.6 °F100 %30.21 in1.2 miWSW (240°)3.5 mphMostly Cloudy
7:50 AM44.6 °F44.6 °F100 %30.24 in1.6 miSW (220°)3.5 mphMostly Cloudy
8:20 AM44.6 °F44.6 °F100 %30.24 in2.2 miSW (230°)3.5 mphMostly Cloudy
8:50 AM44.6 °F44.6 °F100 %30.21 in3.1 miWSW (240°)3.5 mphMostly Cloudy
9:20 AM44.6 °F44.6 °F100 %30.21 in4.3 miVariable2.3 mphMostly Cloudy
9:50 AM46.4 °F44.6 °F93 %30.21 in5.0 miWSW (250°)3.5 mphMostly Cloudy
10:00 AM46.0 °F45.0 °F93 %30.25 in5.0 miWSW (250°)4.5 mphScattered Clouds
10:20 AM46.4 °F44.6 °F93 %30.21 in6.2 miWest (270°)3.5 mphScattered Clouds
10:50 AM48.2 °F44.6 °F87 %30.18 in6.2 miVariable2.3 mphMostly Cloudy
11:20 AM51.8 °F44.6 °F76 %30.18 in6.2 miVariable2.3 mphMostly Cloudy
11:50 AM53.6 °F46.4 °F77 %30.15 in6.2 miVariable2.3 mphMostly Cloudy
12:20 PM55.4 °F46.4 °F72 %30.12 in6.2 miWest (260°)3.5 mphMostly Cloudy
12:50 PM55.4 °F46.4 °F72 %30.12 in6.2 miWest (260°)5.8 mphMostly Cloudy
1:00 PM55.0 °F46.0 °F64 %30.13 in31.0 miWest (260°)6.7 mphScattered Clouds
1:20 PM55.4 °F46.4 °F72 %30.12 in6.2 miWest (270°)5.8 mphOvercast
1:50 PM55.4 °F46.4 °F72 %30.09 in6.2 miWest (270°)5.8 mphOvercast
2:20 PM55.4 °F44.6 °F67 %30.09 in6.2 miVariable2.3 mphOvercast
2:50 PM55.4 °F44.6 °F67 %30.09 in6.2 miVariable1.2 mphOvercast
3:20 PM55.4 °F46.4 °F72 %30.09 inVariable1.2 mphClear
3:50 PM55.4 °F48.2 °F77 %30.09 inSSW (200°)2.3 mphClear
4:00 PM55.0 °F47.0 °F68 %30.09 in31.0 miSSW (200°)2.2 mphOvercast
4:20 PM53.6 °F48.2 °F82 %30.09 inVariable1.2 mphClear
4:50 PM51.8 °F46.4 °F82 %30.09 inVariable2.3 mphClear
5:20 PM51.8 °F46.4 °F82 %30.06 inVariable1.2 mphClear
5:50 PM50.0 °F46.4 °F87 %30.06 inWSW (250°)3.5 mphClear
6:20 PM48.2 °F44.6 °F87 %30.06 inSW (220°)3.5 mphClear
6:50 PM48.2 °F46.4 °F93 %30.06 inVariable2.3 mphClear
7:00 PM49.0 °F46.0 °F84 %30.09 in19.0 mi°2.2 mphOvercast
7:20 PM48.2 °F44.6 °F87 %30.06 inWSW (250°)3.5 mphClear
7:50 PM48.2 °F46.4 °F93 %30.06 in6.2 miVariable1.2 mphMostly Cloudy
8:20 PM48.2 °F44.6 °F87 %30.06 in6.2 miVariable2.3 mphMostly Cloudy
8:50 PM48.2 °F46.4 °F93 %30.04 in6.2 miVariable2.3 mphMostly Cloudy
9:20 PM48.2 °F44.6 °F87 %30.04 in6.2 miVariable2.3 mphMostly Cloudy
9:50 PM48.2 °F44.6 °F87 %30.04 inVariable3.5 mphClear
10:00 PM48.0 °F45.0 °F86 %30.06 in19.0 mi°4.5 mphScattered Clouds
10:20 PM46.4 °F44.6 °F93 %30.04 in6.2 miWest (270°)5.8 mphMostly Cloudy
10:50 PM46.4 °F44.6 °F93 %30.04 in6.2 miWest (260°)6.9 mphScattered Clouds
11:20 PM46.4 °F44.6 °F93 %30.01 in6.2 miWNW (290°)8.1 mphMostly Cloudy
11:50 PM46.4 °F44.6 °F93 %30.01 in6.2 miSW (220°)4.6 mphMostly Cloudy
Hourly data recorded from LOWI, located miles away from Innsbruck, Austria







STORIES FROM OUR PARTNERS